sat.trackr.live / text

‹ back to catalog

ONEWEB-0409

NORAD 50488 · 2021-132V

PAYLOAD ACTIVE UNKNOWN

§ Identity

Operator
Country
UK
Launch date
2021-12-27
Launch site
TYMSC
Launch vehicle
Mass (kg)
RCS (m²)

Purposes: comms

External: N2YO · Heavens-Above · Gunter

§ Orbital elements

Epoch: 2026-09-20T02:10:10.356960Z

Period
109.80 min
Inclination
87.8974°
Eccentricity
0.0001810
Mean motion
13.11418600 rev/d
Perigee alt
1,216.3 km
Apogee alt
1,219.1 km
Semi-major
7,595.8 km
B*
-6.2995e-4
RAAN
2.1946°
Arg perigee
110.3830°
Mean anomaly
249.7493°
Rev number
22,802

§ Raw data

ONEWEB-04091 50488U 21132V   26263.09039765 -.00000211  00000+0 -62995-3 0  99912 50488  87.8974   2.1946 0001810 110.3830 249.7493 13.11418600228025

JSON: /api/v1/satellites/50488 · /tle

For live sub-satellite position, see the globe view (requires WebGL).

§ Visibility from observer

Set your observer location to see the next 7 days of passes ≥ 10°. The values pass through the URL so the page stays shareable.

No JS? Fill the form by hand. The geolocation button needs JavaScript.